Location: Voyageurs National Park
(48.5020°N, 92.9292°W)
Time: 16:20:34
(UTC-06:00)

Cosmos 1328 - Pass Details

Date: 19 January 2018
Orbit: 534 x 553 km, 82.5° (Epoch: 21 February)

Event Time Altitude Azimuth Distance (km) Brightness Sun altitude
Exits shadow 06:22:22 25° 306° (NW) 1,126 4.9 -15.1°
Maximum altitude 06:23:42 32° 269° (W) 960 4.5 -14.8°
Drops below altitude 10° 06:27:16 10° 206° (SSW) 1,810 6.3 -14.3°
Sets 06:29:33 0° 196° (SSW) 2,694 7.3 -13.9°
